Regional Weather Roundup
Issued by NWS

Home | Current Version | Previous Version | Text Only | Print | Product List | Glossary Off
Versions: 1 2 3 4 5 6 7 8 9 10 11 12 13 14 15 16 17 18 19 20 21 22 23 24 25 26 27 28 29 30 31 32 33 34 35 36 37 38 39 40 41 42 43 44 45 46 47 48 49 50

000
ASUS43 KFSD 270302
RWRSD

WEATHER ROUNDUP FOR SOUTH DAKOTA
NATIONAL WEATHER SERVICE SIOUX FALLS SD
1000 PM CDT TUE MAY 26 2015

NOTE: "FAIR" INDICATES FEW OR NO CLOUDS BELOW 12,000 FEET WITH NO
SIGNIFICANT WEATHER AND/OR OBSTRUCTIONS TO VISIBILITY.


SDZ001>005-009-010-012>017-270400-
NORTHWEST AND NORTH CENTRAL SOUTH DAKOTA

CITY           SKY/WX    TMP DP  RH WIND       PRES   REMARKS
FAITH            N/A     60  49  66 SW7       29.94R
MOBRIDGE       CLEAR     63  54  72 SE3       29.89R
$$

SDZ012>016-024>037-041>051-057-063-072>074-270400-
SOUTHWEST AND SOUTH CENTRAL SOUTH DAKOTA

CITY           SKY/WX    TMP DP  RH WIND       PRES   REMARKS
RAPID CTY ARPT CLOUDY    59  50  72 W5        29.97R
PIERRE         CLEAR     66  47  50 CALM      29.90R
CUSTER         CLOUDY    49  46  90 CALM      30.07R
ELLSWORTH AFB  MOCLDY    59  50  73 S6        29.97R
PHILIP         CLEAR     62  49  62 CALM      29.94R
PINE RIDGE     MOCLDY    54  47  77 E6        29.99R
WINNER         FAIR      66  50  56 SW6       29.93R
$$

SDZ004>011-016>023-039-040-270400-
NORTHEAST SOUTH DAKOTA

CITY           SKY/WX    TMP DP  RH WIND       PRES   REMARKS
ABERDEEN       CLOUDY    61  55  81 W6        29.86R
WATERTOWN      CLOUDY    64  51  62 N12       29.86R
BROOKINGS      CLOUDY    61  54  77 CALM      29.88R
$$

SDZ017-020-022-023-036>040-048>070-270400-
SOUTHEAST SOUTH DAKOTA

CITY           SKY/WX    TMP DP  RH WIND       PRES   REMARKS
SIOUX FALLS    CLOUDY    60  52  74 W6        29.87R
HURON          CLOUDY    66  50  56 N5        29.87R
CHAMBERLAIN    MOCLDY    60  53  76 W6        29.92R
MITCHELL       MOCLDY    66  54  65 NW10      29.89R
YANKTON        MOCLDY    64  52  63 NW3       29.88R
$$

ABBREVIATIONS USED IN REMARKS
   TC - TEMPERATURE IN CELSIUS
  WCI - WIND CHILL INDEX
   HX - HEAT INDEX
  VSB - VISIBILITY



USA.gov is the U.S. government's official web portal to all federal, state and local government web resources and services.